Flag for Germany Weather past 2 weeks in Zerbst/Anhalt, Saxony-Anhalt, Germany

Now
67 °F

Scattered clouds.


Feels Like: 67 °F
Forecast: 61 / 76 °F
Wind: 3 mph from Northeast

Location: Magdeburg

Current Time: Jul 24, 2014 at 8:30:01 AM

Latest Report: Jul 24, 2014 at 8:00 AM


Visibility: 19 mi

Pressure: 30.04 "Hg

Humidity: 66%

Dew point: 55 °F

Location of Zerbst/AnhaltLocation

Historic Weather in Zerbst/Anhalt — Graph

°F

Zerbst/Anhalt temperature yesterday

Maximum temperature yesterday: 84 °F (at 5:00 PM)
Minimum temperature yesterday: 64 °F (at 6:00 AM)
Average temperature yesterday: 75 °F

Past Weeks' High & Low Weather Summary

 TemperatureHumidityPressure
High93 °F (Jul 20, 3:00 PM)98% (Jul 11, 6:00 AM)30.20 "Hg (Jul 11, 6:00 AM)
Low54 °F (Jul 12, 4:00 AM)20% (Jul 19, 6:00 PM)29.60 "Hg (Jul 9, 3:00 PM)
Average71 °F67%29.94 "Hg
* Reported Jul 9 3:00 PM — Jul 24 7:00 AM, Zerbst/Anhalt, Weather by CustomWeather, © 2014

Note: Actual official high and low records may vary slightly from our data, if they occured in-between our weather recording intervals... More about our weather records

Advertising

Zerbst/Anhalt weather history for previous 24 hours

 ConditionsComfort  
Time TempWeatherWind HumidityBarometerVisibility
7:00 AM
Jul 24
65 °FPartly sunny.2 mph75%30.03 "Hg19 mi
6:00 AM63 °FOvercast.2 mph79%30.03 "Hg19 mi
5:00 AM62 °FOvercast.2 mph81%30.03 "Hg16 mi
4:00 AM62 °FOvercast.2 mph77%30.03 "Hg18 mi
3:00 AM65 °FOvercast.2 mph69%30.03 "Hg25 mi
2:00 AM66 °FPassing clouds.2 mph61%30.04 "Hg28 mi
1:00 AM66 °FPassing clouds.1 mph62%30.04 "Hg28 mi
12:00 AM71 °FClear.3 mph49%30.04 "Hg31 mi
10:00 PM
Jul 23
75 °FPassing clouds.3 mph42%30.04 "Hg34 mi
9:00 PM77 °FPassing clouds.5 mph41%30.03 "Hg31 mi
8:00 PM80 °FOvercast.6 mph33%30.01 "Hg37 mi
7:00 PM83 °FPartly sunny.5 mph33%30.01 "Hg28 mi
6:00 PM83 °FScattered clouds.5 mph25%30.01 "Hg19 mi
5:00 PM84 °FPassing clouds.5 mph29%30.02 "Hg37 mi
4:00 PM83 °FScattered clouds.5 mph33%30.04 "Hg37 mi
3:00 PM82 °FScattered clouds.5 mph35%30.06 "Hg37 mi
Weather by CustomWeather, © 2014

See weather overviewHow to use our weather pages